Theta_e
299 298 299 300 300 300 299 298 298 297 297 298 296 295 295 295 295 295 297 296 295 293 294 297 298 296 295 293 293 293 291 293 294 296 298 297 298 297 296 297 297 298 296 298 300 303 303 301 298 297 297 295 295 295
301 299 299 298 298 301 300 299 297 297 298 298 296 296 295 295 295 295 296 295 295 294 293 297 297 296 297 296 293 292 293 294 294 294 293 293 294 289 293 291 292 293 294 294 296 297 295 296 296 295 294 294 294 296
301 301 301 299 300 300 301 300 298 297 297 297 297 296 295 295 295 294 295 295 295 292 290 293 294 295 297 297 297 294 292 293 294 292 292 291 294 293 292 293 294 293 292 293 294 294 293 293 292 292 293 294 294 294
301 301 301 298 300 300 301 300 300 298 297 297 297 297 297 295 295 294 295 296 296 292 290 291 295 295 295 296 297 298 296 295 295 293 293 289 292 292 293 293 292 293 294 293 292 292 292 293 292 293 294 293 293 292
300 299 298 299 299 300 299 300 301 300 297 297 297 297 298 296 296 295 298 297 297 295 289 292 293 294 295 295 294 295 296 293 292 292 290 292 294 294 291 291 291 291 293 293 293 292 292 292 292 294 293 293 292 292
298 298 298 299 299 300 299 298 297 298 297 298 298 298 298 296 296 295 294 297 297 298 292 288 291 293 294 296 295 294 295 293 292 293 292 293 293 293 295 294 291 291 292 292 294 293 291 291 291 293 292 292 292 290
297 297 298 298 299 299 298 297 297 297 297 296 296 297 297 297 297 295 294 297 297 297 291 287 288 290 291 293 293 292 293 291 292 293 293 293 295 297 295 294 294 291 292 291 291 291 292 291 292 293 294 292 291 289
296 296 297 298 299 298 297 298 298 296 295 295 296 297 297 297 297 296 296 297 297 295 291 282 285 289 292 292 293 291 292 291 291 292 296 297 295 296 294 294 292 292 292 291 291 290 292 294 294 293 291 290 288 287
295 297 298 298 297 295 296 298 297 296 296 297 298 297 297 296 295 296 296 296 297 295 288 291 283 288 290 290 290 291 291 290 290 293 295 294 296 295 294 293 292 292 292 293 293 293 292 292 292 290 290 289 288 287
297 298 298 298 296 296 296 296 297 296 297 298 297 296 288 296 296 296 295 295 295 295 293 293 288 289 289 289 288 286 290 287 285 290 292 295 293 294 293 292 292 292 291 291 292 293 293 293 291 290 289 289 287 287
296 296 297 297 296 295 295 295 296 297 297 297 295 288 295 296 295 293 293 293 291 291 294 294 292 294 289 291 290 288 285 285 289 289 292 294 289 291 291 290 290 291 291 291 293 294 294 293 291 289 289 289 288 287
294 294 296 296 296 295 294 295 296 297 296 296 294 294 295 294 292 292 292 289 290 290 287 291 292 292 290 288 291 288 286 285 289 290 291 291 291 290 290 291 293 293 293 292 293 293 292 292 291 290 289 289 288 288
296 295 296 296 296 296 295 296 297 297 296 294 293 292 291 291 291 291 288 292 289 288 288 288 290 289 288 287 286 288 289 288 289 288 291 292 290 290 289 291 292 293 293 293 292 292 292 291 291 290 289 289 288 288
295 294 295 296 296 295 294 295 296 295 295 293 294 293 289 284 289 286 287 289 289 288 288 289 286 288 289 288 285 290 284 284 285 291 292 291 290 290 289 288 290 292 291 291 291 291 291 291 290 290 289 289 288 287
294 294 295 295 296 295 294 294 295 295 293 294 294 292 290 288 283 285 286 286 288 288 290 290 289 289 285 291 287 285 286 286 287 290 291 291 289 289 289 289 289 289 290 290 292 291 291 291 290 290 290 289 288 288
294 294 294 294 295 295 293 293 294 294 293 292 293 293 289 287 285 282 285 285 288 291 293 292 287 289 290 288 287 287 285 289 290 291 291 289 289 289 288 289 290 291 291 291 292 292 292 291 290 290 290 289 288 287
293 293 292 293 295 294 292 292 293 292 294 294 294 290 286 284 287 286 287 288 291 294 294 293 296 294 288 288 287 288 290 292 290 291 291 290 290 289 289 290 291 292 291 291 291 292 291 291 290 289 287 288 288 287
292 291 292 292 292 293 293 292 292 293 293 291 292 288 284 285 285 285 288 291 293 294 294 295 293 292 291 287 289 290 289 290 291 290 288 288 290 290 290 289 291 290 290 291 292 291 290 289 289 288 289 288 287 286
291 291 291 291 292 292 291 292 292 293 291 283 282 281 283 284 287 290 291 292 293 293 294 294 295 293 291 290 292 292 291 290 289 289 287 290 291 290 290 290 290 289 290 291 291 290 290 290 290 290 289 287 286 286
292 292 291 291 292 292 292 292 291 288 284 287 284 285 286 285 283 285 286 289 289 292 294 293 293 293 287 291 290 291 287 287 284 285 287 286 291 290 290 290 290 293 291 291 290 290 289 289 289 289 288 287 286 285
293 292 292 292 292 291 290 291 291 290 290 285 285 288 287 282 284 283 283 287 291 292 291 291 292 293 293 293 293 292 290 289 288 288 292 292 292 291 290 292 292 290 288 288 288 288 291 288 289 288 287 286 285 284
293 292 292 291 292 291 290 290 289 289 290 290 290 290 289 291 290 289 284 290 289 287 289 291 292 292 292 291 292 291 291 292 291 290 291 291 289 285 288 290 288 289 289 290 289 288 288 288 288 287 286 285 284 283
293 293 293 292 292 291 288 289 290 290 291 288 289 290 288 287 286 285 284 286 287 285 289 289 290 291 290 291 291 291 290 289 288 287 288 289 289 289 289 291 291 290 289 289 288 287 287 287 286 285 284 283 283 282
293 292 292 291 291 292 289 290 287 286 288 288 289 283 281 283 282 286 290 287 287 281 279 283 285 284 284 285 283 288 288 287 286 287 288 288 287 290 291 290 289 289 289 288 287 286 285 285 284 284 283 282 281 281
292 292 292 288 285 286 283 282 281 286 284 282 283 280 280 283 284 285 288 289 280 281 284 281 280 279 284 289 287 287 289 288 288 288 289 289 289 289 288 288 287 287 287 286 285 284 284 283 283 282 282 281 281 280
293 292 291 284 281 285 284 285 286 286 283 279 283 281 281 285 288 287 288 285 283 282 282 283 288 290 289 289 289 288 287 288 286 288 288 288 288 287 286 285 284 285 286 286 285 283 283 282 281 281 280 280 280 280
293 288 288 279 281 282 284 285 286 286 284 283 280 280 284 287 285 287 286 283 284 289 290 290 291 291 289 289 288 287 288 288 287 287 287 286 287 287 287 286 284 285 284 284 284 283 282 282 281 280 280 279 279 279
288 283 288 287 285 286 286 282 282 285 286 283 284 285 285 286 287 286 285 289 289 289 289 290 290 289 287 287 286 286 286 286 286 285 285 285 285 285 285 285 285 284 283 283 282 282 282 281 280 280 279 279 279 278
289 282 286 288 286 285 284 285 285 285 284 285 286 285 285 285 284 283 288 288 288 287 286 286 286 285 285 285 285 286 286 285 284 284 284 283 281 283 284 283 283 283 283 283 282 282 281 281 280 279 279 278 278 277
287 284 288 286 287 288 286 286 286 283 282 283 281 281 281 281 287 287 287 286 285 284 285 284 283 283 283 283 283 284 285 284 284 285 284 283 282 283 283 283 282 282 282 282 281 281 281 280 280 279 278 278 277 276
277 282 282 281 282 282 283 280 280 280 278 279 278 281 283 280 283 283 283 282 281 281 281 281 281 281 281 281 281 281 282 284 284 284 284 284 284 283 283 283 282 281 281 281 281 281 281 281 280 279 278 278 277 276
282 285 286 283 281 276 279 280 281 282 280 279 278 274 277 278 279 277 277 278 278 278 279 280 279 280 281 281 281 281 282 283 283 283 283 282 282 282 282 281 280 280 280 280 279 279 279 278 278 277 276 275 275 275
282 283 283 284 282 281 281 283 284 282 278 277 278 276 277 281 285 277 277 277 277 277 277 278 279 279 280 280 281 281 282 282 282 282 282 282 282 281 281 281 281 280 279 279 278 277 276 276 275 275 275 274 274 274
Wind_Speed
12 10 9 7 5 3 2 1 1 3 4 6 10 13 14 16 15 12 14 18 5 3 1 1 2 3 2 2 3 2 3 3 3 4 2 1 1 1 2 3 2 1 1 3 2 3 6 2 1 1 4 2 5 5
14 11 9 6 4 7 5 2 0 2 4 5 8 10 13 14 14 11 9 14 9 7 3 1 2 5 4 4 4 2 4 2 3 3 1 2 1 2 2 2 4 3 5 3 5 4 3 2 4 4 5 7 4 2
14 12 10 7 7 8 8 4 2 2 3 3 5 8 10 12 13 13 8 14 5 4 3 3 1 3 3 7 5 4 2 3 1 3 3 1 1 3 2 4 1 5 2 3 2 4 7 6 6 5 4 4 2 2
15 13 11 9 10 11 9 5 4 2 1 1 2 5 7 9 10 10 8 10 5 4 3 3 3 2 2 2 5 4 5 4 6 2 2 2 1 2 2 2 4 5 2 3 5 9 7 7 5 5 3 3 4 3
16 13 10 8 8 13 10 9 6 4 2 2 2 2 3 7 7 7 8 6 6 3 2 3 5 2 3 3 2 6 10 5 2 2 2 3 2 2 1 0 5 5 6 4 5 7 6 6 6 5 6 6 4 1
14 12 10 9 9 12 10 8 7 6 3 3 2 1 2 5 4 3 4 8 3 5 3 2 4 3 5 5 2 4 8 3 3 4 3 2 1 3 2 3 7 7 5 9 9 5 6 8 8 7 5 4 4 6
12 11 11 11 11 12 11 9 8 6 5 5 4 3 3 2 2 3 3 2 1 5 3 4 4 4 3 3 2 2 2 1 3 2 2 3 3 4 2 5 19 7 8 8 8 3 7 7 6 8 5 5 4 7
13 11 10 10 13 11 10 10 9 7 7 7 5 3 2 2 1 0 1 2 2 4 4 2 4 4 3 1 0 1 1 1 1 2 1 2 0 2 4 13 6 7 5 7 9 8 11 3 3 4 6 6 5 5
12 12 13 14 13 11 10 11 10 9 7 6 7 5 3 1 2 2 1 4 3 1 2 1 2 3 3 1 1 2 0 1 1 2 2 2 3 6 11 10 8 10 6 6 3 3 4 5 6 6 6 5 5 6
10 11 15 15 13 11 10 9 9 6 8 12 9 3 3 3 7 2 3 3 2 1 1 2 2 2 2 1 1 2 1 1 1 3 1 3 4 11 12 11 11 12 8 6 5 3 4 6 7 5 7 8 10 9
11 10 11 14 13 12 11 11 9 11 15 5 2 2 5 7 2 3 1 1 1 2 2 2 5 5 2 2 3 1 2 1 1 3 2 3 4 5 7 8 6 10 9 12 14 10 10 5 5 5 6 12 12 12
11 12 14 14 14 12 11 10 15 18 9 7 9 8 3 2 2 1 2 2 3 4 2 4 4 4 2 1 2 1 2 1 5 1 1 3 5 7 7 7 5 4 3 8 11 10 9 10 9 9 10 12 14 14
11 9 12 17 16 13 11 10 20 19 16 10 3 3 2 1 3 5 6 3 2 3 4 3 2 3 1 1 2 2 2 4 1 1 3 5 4 4 6 4 6 5 6 7 9 12 12 12 10 12 13 13 12 13
10 9 8 11 16 15 14 11 17 21 7 3 4 5 5 3 5 5 5 4 4 3 4 3 2 3 2 2 2 3 4 1 2 4 5 4 7 8 5 3 4 7 12 12 13 14 15 15 15 14 15 15 14 16
11 10 10 12 17 17 13 12 16 13 6 3 4 5 6 4 2 2 2 1 3 3 4 2 1 3 1 3 3 1 1 5 7 5 4 5 4 5 4 3 6 7 9 12 19 15 19 19 16 18 17 16 16 17
7 5 9 15 20 18 15 9 10 9 3 3 5 2 1 2 2 1 3 3 4 3 2 1 3 3 5 4 4 8 5 8 4 4 6 3 4 5 6 6 10 12 14 17 19 21 22 21 21 20 17 15 16 17
8 5 5 9 13 13 13 9 7 7 4 4 3 2 3 2 4 4 5 4 13 5 4 3 6 9 1 3 4 5 7 6 4 5 6 7 7 7 9 10 10 14 14 17 20 20 23 22 16 14 13 16 18 17
9 9 9 11 11 12 10 12 5 4 8 5 4 3 3 3 3 3 4 5 5 4 4 4 2 5 5 6 7 4 4 4 5 7 5 5 10 14 15 15 20 20 17 18 19 20 18 16 15 14 16 17 15 15
15 12 12 12 11 9 7 5 6 3 6 2 2 1 2 3 6 6 4 11 11 3 3 3 5 4 7 4 7 6 7 4 4 5 4 14 18 17 18 20 18 17 17 20 19 19 18 16 15 14 14 14 16 16
11 12 12 11 14 5 3 3 5 3 3 3 1 2 3 3 1 1 2 3 3 2 5 5 8 10 5 7 4 5 3 4 2 3 4 6 19 16 17 19 19 21 19 17 17 9 9 11 12 13 14 15 16 18
8 10 9 15 10 10 3 3 3 2 2 2 2 2 3 1 2 3 3 6 3 3 4 6 13 15 24 24 22 17 15 15 7 7 10 10 17 20 22 21 20 17 11 6 5 9 12 17 16 13 14 14 15 14
4 12 7 10 4 4 4 9 3 2 2 1 1 3 2 2 3 4 2 4 4 5 5 9 11 11 10 11 18 23 23 22 23 20 21 19 7 5 9 17 10 9 10 13 13 11 15 16 13 12 13 14 14 13
8 9 5 6 5 4 4 10 3 3 3 3 2 2 3 3 3 2 2 4 4 7 13 11 14 21 18 23 23 24 21 21 14 15 17 18 18 21 19 13 14 11 9 13 13 12 13 11 12 13 13 12 12 13
10 7 4 5 6 4 2 4 1 3 2 2 3 3 4 4 0 1 4 3 4 3 2 9 12 5 8 10 4 13 15 17 17 18 21 16 9 12 16 14 15 16 15 10 10 12 12 12 12 13 13 13 13 13
5 6 4 5 2 4 3 1 2 2 4 3 4 4 3 2 1 3 4 4 2 3 5 5 7 4 4 5 7 13 16 12 11 5 10 13 10 7 9 11 10 11 10 11 11 13 14 13 14 14 14 14 15 14
6 6 8 7 2 5 6 5 6 7 3 3 6 3 1 2 2 6 3 3 3 3 3 4 5 4 2 8 4 6 10 10 8 6 5 8 11 10 7 4 3 9 14 15 14 14 14 13 14 14 15 14 13 13
5 6 2 1 3 3 1 1 2 3 5 6 3 3 3 3 6 4 3 4 3 6 8 9 11 10 7 8 9 9 8 5 5 4 5 5 7 10 10 8 9 11 7 12 16 15 14 13 14 15 15 14 14 13
5 5 7 6 3 2 4 3 5 7 5 3 3 5 6 7 6 3 5 4 7 8 8 9 11 12 13 12 10 9 6 7 6 5 6 8 10 9 11 12 10 8 6 7 10 13 14 12 12 12 13 13 12 11
4 3 4 5 2 3 6 7 6 4 4 5 6 5 5 4 3 3 2 5 7 9 11 13 14 12 13 12 12 11 12 11 8 4 5 4 3 7 10 9 10 10 9 8 9 10 10 10 9 9 8 8 7 7
4 4 4 6 7 9 6 7 3 2 2 3 1 2 2 3 7 7 9 9 10 12 13 12 12 11 13 12 12 12 13 15 16 12 4 4 6 8 6 7 12 12 11 10 10 9 7 7 6 6 5 5 4 5
1 2 1 3 5 3 1 1 0 0 1 2 1 3 3 3 5 5 7 9 10 10 10 11 11 10 12 13 11 7 6 11 17 16 15 14 13 12 10 9 9 12 12 11 10 10 10 9 9 9 8 8 7 6
2 4 3 3 4 3 1 2 2 2 2 1 3 1 3 2 3 0 6 8 5 5 5 8 8 11 10 11 12 13 12 12 10 9 11 12 15 13 11 7 8 10 10 9 8 8 8 8 8 7 6 5 5 5
1 1 1 2 2 3 1 2 2 3 1 2 3 2 2 2 4 1 3 9 7 5 9 12 13 13 12 11 11 10 9 12 13 12 12 12 10 11 10 9 9 9 9 8 6 6 6 5 5 3 3 2 3 3
Wind_Direction
173 169 167 181 188 194 183 158 38 63 31 39 37 35 35 33 33 48 44 34 60 102 292 163 125 118 94 87 123 249 40 348 35 61 94 257 115 274 325 272 284 264 335 228 190 233 265 221 52 5 252 284 257 253
184 184 181 185 198 212 208 214 103 102 61 57 46 37 33 33 34 45 43 27 48 82 162 156 260 263 220 165 133 41 161 183 183 92 68 116 251 25 136 272 328 276 204 211 181 237 227 288 236 232 273 251 255 197
190 193 200 215 223 211 204 204 188 171 80 57 40 33 28 27 29 37 43 25 47 59 21 83 45 42 127 207 207 115 281 187 152 161 147 142 245 135 190 235 274 266 159 218 3 271 256 275 275 251 256 249 149 104
195 197 212 235 220 204 199 201 209 162 151 23 17 23 19 20 26 25 34 27 53 91 101 279 15 68 266 251 189 206 142 126 108 74 109 136 201 168 225 242 218 220 194 219 254 274 288 288 252 250 236 161 160 161
198 209 218 216 219 193 198 198 206 210 200 238 279 352 355 6 16 22 42 42 55 81 197 272 328 36 32 353 221 212 184 129 121 79 107 211 183 167 234 74 256 184 205 182 231 234 218 256 273 263 207 217 223 241
202 209 210 207 201 199 199 206 206 211 215 214 247 274 311 344 356 2 34 40 60 36 80 10 321 334 7 28 88 161 181 133 132 156 202 232 231 144 237 244 242 208 220 222 254 234 222 251 262 250 208 194 217 224
206 212 214 214 206 201 204 205 211 210 223 241 244 244 272 310 2 40 155 3 62 12 61 345 341 342 343 20 52 65 140 166 139 195 225 182 196 188 225 245 268 209 240 251 245 259 290 229 238 192 191 204 197 214
209 213 210 207 193 197 210 214 212 220 231 241 241 204 208 164 136 80 158 94 119 65 61 76 281 343 17 21 10 4 115 45 330 211 234 203 200 221 255 248 282 271 271 272 264 219 234 261 151 171 200 185 191 217
213 209 202 192 198 204 216 218 218 219 231 226 194 168 133 119 79 17 166 206 223 35 136 238 150 258 5 18 313 3 347 354 314 225 232 143 208 225 237 261 260 257 222 241 217 201 182 198 218 218 208 212 222 232
193 195 198 193 197 196 204 208 210 199 178 159 143 155 7 103 112 67 13 20 348 7 120 218 146 272 105 55 307 74 15 213 277 247 173 222 254 252 253 248 263 277 243 200 184 222 223 269 232 230 230 234 232 231
193 192 195 198 201 202 204 208 194 165 151 166 114 109 114 136 119 50 344 277 323 282 225 225 186 230 195 158 219 176 200 237 307 265 169 264 274 244 257 259 258 269 259 213 210 223 222 216 209 223 242 245 243 237
214 214 213 209 208 212 210 201 180 165 159 171 127 110 128 77 49 136 221 278 191 233 242 179 199 195 245 129 113 264 173 51 247 185 225 261 251 242 267 274 286 290 230 193 202 212 213 223 224 228 242 245 239 239
199 206 215 214 211 206 203 193 182 179 152 126 101 127 122 237 161 188 200 220 242 206 191 166 183 166 45 62 74 116 190 229 24 173 232 234 274 259 251 266 277 262 229 210 207 217 228 241 240 233 246 253 250 237
199 209 210 209 197 193 195 183 176 166 150 161 163 190 184 217 220 199 189 194 225 165 152 140 107 165 188 125 162 162 237 94 297 232 235 254 246 263 271 240 231 233 223 230 237 240 244 248 254 256 252 252 242 234
221 223 222 219 200 189 195 181 185 186 179 207 197 218 200 205 240 214 183 225 210 153 133 105 62 139 213 165 193 94 353 231 204 227 232 251 251 271 274 249 234 247 240 235 245 247 254 258 255 261 261 254 242 241
172 186 219 224 201 189 194 186 182 194 253 222 217 183 136 80 272 225 190 239 190 158 136 96 162 174 213 185 152 212 181 221 225 214 235 246 255 260 261 275 269 258 250 254 261 263 266 264 253 258 268 254 238 237
191 204 215 193 186 189 204 197 176 188 238 243 216 183 167 171 198 202 186 216 159 152 203 206 209 212 95 202 219 202 221 229 213 237 235 224 231 247 261 270 261 265 266 267 266 267 265 272 270 251 240 244 242 238
215 226 221 203 205 207 200 193 193 225 221 223 218 213 195 201 189 225 212 155 142 194 176 227 221 179 204 207 238 219 235 243 235 245 248 260 263 266 272 259 276 274 274 269 264 269 272 261 240 236 246 248 241 235
225 229 227 200 205 179 162 222 189 258 226 210 245 231 206 237 240 242 206 194 202 162 175 206 227 216 226 248 258 253 244 218 233 241 236 256 266 268 274 281 279 270 261 265 267 258 262 264 242 257 252 240 224 232
228 238 234 222 199 166 200 210 202 195 225 230 151 215 197 206 204 225 234 194 162 193 220 220 236 241 218 236 212 232 209 207 159 276 271 273 276 274 272 261 257 270 276 279 268 259 244 246 249 242 239 233 225 234
221 232 216 188 186 200 244 202 206 218 217 195 237 178 248 189 194 206 217 170 189 222 238 229 245 248 246 255 262 262 241 227 225 225 263 274 266 260 257 259 270 272 259 259 241 257 257 237 246 237 232 228 235 244
176 163 143 171 210 176 227 209 196 171 199 237 232 196 249 262 242 227 172 187 221 220 216 243 250 261 263 261 259 254 254 252 250 249 257 256 257 251 239 251 244 233 221 247 242 245 255 242 239 233 231 234 234 240
175 172 160 165 198 217 251 154 169 194 207 234 190 203 239 234 228 109 244 220 242 232 232 245 250 254 249 262 268 267 263 251 246 241 247 247 246 250 248 230 246 235 234 238 242 245 244 237 226 225 224 224 230 240
181 178 184 204 195 205 148 205 142 166 194 199 212 254 252 220 112 216 249 254 239 253 235 238 244 271 289 280 263 271 269 255 250 258 253 241 232 233 242 245 236 240 236 248 245 241 232 223 217 213 216 221 228 237
189 201 196 210 172 131 167 219 220 178 243 189 172 271 255 150 175 246 240 262 247 248 251 241 211 198 229 269 287 284 298 267 244 249 250 227 228 226 222 231 224 226 237 229 224 219 216 213 214 220 222 226 232 239
217 201 191 189 203 166 181 175 199 206 165 189 225 248 151 157 211 246 243 241 236 233 228 209 207 207 212 231 265 288 297 312 255 241 259 236 226 211 205 198 203 249 238 230 225 220 220 220 222 226 231 235 238 245
218 213 172 87 133 118 151 241 125 151 186 206 215 160 153 206 232 247 264 229 225 248 272 269 235 211 235 268 282 289 278 282 237 265 297 273 243 239 240 238 228 249 247 224 220 223 227 229 233 235 241 245 246 246
227 169 179 179 194 205 175 182 186 201 209 203 128 186 194 203 232 233 211 233 245 269 264 258 250 252 257 264 268 265 258 226 232 266 282 279 271 258 243 237 231 223 230 229 230 229 232 236 239 239 240 243 250 247
200 189 139 167 168 203 211 199 211 216 187 165 179 209 227 220 233 237 251 259 279 264 256 261 265 264 263 262 261 256 238 228 194 213 243 265 300 275 239 232 226 223 222 220 221 226 226 233 241 242 241 241 245 249
229 174 179 175 186 214 225 194 218 229 189 187 186 332 293 258 238 258 263 266 255 255 277 289 291 280 268 270 273 266 247 237 233 226 237 237 241 263 262 251 234 228 220 208 196 194 190 193 191 197 209 220 236 256
156 136 257 210 230 232 231 299 200 165 216 237 225 206 247 302 306 264 278 288 291 295 290 288 293 288 279 275 262 264 274 263 244 246 252 258 263 254 263 265 239 220 213 207 204 202 201 205 214 221 232 247 261 264
190 210 194 239 271 293 304 211 235 232 225 208 251 187 311 348 265 285 4 358 1 1 343 331 317 311 315 300 290 277 265 270 279 273 266 261 256 253 245 230 208 201 200 196 196 199 208 216 220 225 238 249 262 273
282 241 261 279 304 305 314 234 239 284 298 251 255 220 232 221 255 5 19 16 359 324 333 327 321 313 308 304 298 294 280 270 271 277 268 270 261 224 210 198 194 196 195 190 185 189 189 192 194 203 228 253 276 289